DW8522 Weather Reports


time (UTC)temp
F
wind
direction
speed
knots
gust
knots
rain 1hr
in
rain 24hr
in
rain mn
in
humidity
%
barometer
mb
20260903014548 66 266 4.3 8.7 0.00 0.00 0.00 58 1018.2
20260903013049 65 245 4.3 8.7 0.00 0.00 0.00 61 1018.3
20260903011544 63 116 3.5 10.4 0.00 0.00 0.00 65 1018.4
20260903010041 64 229 2.6 7.8 0.00 0.00 0.00 63 1018.7
20260903004540 66 295 2.6 6.1 0.00 0.00 0.00 63 1018.8
20260903003038 65 142 3.5 7.8 0.00 0.00 0.00 62 1019.1
20260903001536 64 215 2.6 7.0 0.00 0.00 0.00 68 1019.1
20260903000036 63 287 2.6 7.0 0.00 0.00 0.00 66 1019.3
20260902234534 64 152 2.6 7.8 0.00 0.00 0.00 64 1019.6
20260902233030 63 172 0.9 4.3 0.00 0.00 0.00 72 1019.7
20260902231530 61 177 0.9 5.2 0.00 0.00 0.00 75 1019.8
20260902230026 60 152 1.7 6.1 0.00 0.00 0.00 74 1020.1
20260902224524 60 158 0.9 6.1 0.00 0.00 0.00 76 1020.1
20260902223029 60 285 1.7 3.5 0.00 0.00 0.00 77 1020.3
20260902221527 60 113 0.9 4.3 0.00 0.00 0.00 77 1020.4
20260902220029 61 291 1.7 5.2 0.00 0.00 0.00 77 1020.3
20260902214520 61 102 0.9 5.2 0.00 0.00 0.00 79 1020.3
20260902213017 59 158 0.0 4.3 0.00 0.00 0.00 81 1020.1
20260902211514 58 108 0.9 2.6 0.00 0.00 0.00 82 1020.1
20260902210018 57 324 0.9 5.2 0.00 0.00 0.00 84 1020.3
20260902204511 57 166 0.9 7.0 0.00 0.00 0.00 85 1020.3
20260902203007 56 271 0.9 3.5 0.00 0.00 0.00 86 1020.4
20260902201516 55 181 0.9 3.5 0.00 0.00 0.00 85 1020.4
20260902200005 54 328 0.9 3.5 0.00 0.00 0.00 84 1020.4
20260902194503 54 120 0.0 1.7 0.00 0.00 0.00 83 1020.3
20260902193002 54 163 0.0 0.9 0.00 0.00 0.00 82 1020.1
20260902191601 54 198 0.0 2.6 0.00 0.00 0.00 82 1019.9
20260902190059 53 161 0.0 2.6 0.00 0.00 0.00 82 1019.7
20260902184558 53 210 0.0 3.5 0.00 0.00 0.00 82 1019.6
20260902183057 53 146 1.7 4.3 0.00 0.00 0.00 83 1019.4
20260902181557 53 195 0.0 1.7 0.00 0.00 0.00 83 1019.2
20260902180057 52 176 0.0 1.7 0.00 0.00 0.00 83 1019.3
20260902174555 53 181 0.0 2.6 0.00 0.00 0.00 82 1019.2
20260902173055 52 139 0.0 1.7 0.00 0.00 0.00 83 1019.2
20260902171605 52 180 0.0 5.2 0.00 0.00 0.00 84 1019.2
20260902170053 52 134 0.0 0.9 0.00 0.00 0.00 84 1019.0
20260902164551 52 131 0.0 0.9 0.00 0.00 0.00 85 1019.2
20260902163053 52 131 0.0 0.9 0.00 0.00 0.00 86 1019.0
20260902161550 53 131 0.0 0.9 0.00 0.00 0.00 86 1019.2
20260902160104 53 157 0.0 0.9 0.00 0.00 0.00 85 1019.1
20260902154555 54 156 0.0 3.5 0.00 0.00 0.00 85 1019.0
20260902153047 54 347 0.0 2.6 0.00 0.00 0.00 85 1018.8
20260902151543 54 279 0.0 2.6 0.00 0.00 0.00 85 1019.1
20260902150042 53 287 1.7 4.3 0.00 0.00 0.00 87 1019.3
20260902144541 54 146 0.0 0.9 0.00 0.00 0.00 85 1019.4
20260902143044 54 116 0.0 0.9 0.00 0.00 0.00 84 1019.5
20260902141537 54 178 0.0 3.5 0.00 0.00 0.00 83 1019.5
20260902140038 55 153 0.9 3.5 0.00 0.00 0.00 82 1019.7
20260902134539 55 166 0.9 4.3 0.00 0.00 0.00 81 1019.4
20260902133043 55 176 0.9 4.3 0.00 0.00 0.00 82 1019.5
20260902131535 55 251 2.6 5.2 0.00 0.00 0.00 83 1019.4
20260902130031 55 130 0.0 3.5 0.00 0.00 0.00 84 1019.5
20260902124529 55 240 1.7 6.1 0.00 0.00 0.00 83 1019.5
20260902123030 55 178 0.9 7.0 0.00 0.00 0.00 83 1019.4
20260902121527 55 186 1.7 5.2 0.00 0.00 0.00 83 1019.3
20260902120033 55 176 0.9 5.2 0.00 0.00 0.00 83 1019.1
20260902114523 55 174 0.0 4.3 0.00 0.00 0.00 84 1019.2
20260902113024 55 191 0.9 6.1 0.00 0.00 0.00 84 1019.0
20260902111538 55 195 0.9 3.5 0.00 0.00 0.00 84 1018.9
20260902110048 56 228 1.7 5.2 0.00 0.00 0.00 84 1019.1
20260902104527 56 293 1.7 4.3 0.00 0.00 0.00 84 1019.1
20260902103020 56 237 1.7 5.2 0.00 0.00 0.00 83 1018.9
20260902101521 56 200 0.9 7.8 0.00 0.00 0.00 83 1018.8
20260902100020 56 205 1.7 5.2 0.00 0.00 0.00 83 1018.8
20260902094521 56 197 0.9 5.2 0.00 0.00 0.00 83 1018.9
20260902093018 56 226 0.9 7.0 0.00 0.00 0.00 83 1018.8
20260902091519 56 200 1.7 6.1 0.00 0.00 0.00 83 1018.9
20260902090018 56 211 1.7 8.7 0.00 0.00 0.00 84 1018.8
20260902084516 56 188 1.7 7.0 0.00 0.00 0.00 85 1018.9
20260902083017 56 229 2.6 7.0 0.00 0.00 0.00 83 1018.7
20260902081516 57 216 1.7 6.1 0.00 0.00 0.00 79 1018.6
20260902080016 57 267 0.9 3.5 0.00 0.00 0.00 79 1018.5
20260902074515 58 205 0.9 5.2 0.00 0.00 0.00 79 1018.5
20260902073014 58 231 1.7 6.1 0.00 0.00 0.00 78 1018.6
20260902071514 58 287 4.3 9.6 0.00 0.00 0.00 77 1018.4
20260902070013 58 210 2.6 7.8 0.00 0.00 0.00 76 1018.1
20260902064613 58 350 2.6 9.6 0.00 0.00 0.00 75 1018.1
20260902063024 58 224 2.6 7.0 0.00 0.00 0.00 75 1018.0
20260902061512 59 200 0.9 7.0 0.00 0.00 0.00 74 1018.2
20260902060010 59 217 1.7 3.5 0.00 0.00 0.00 75 1017.9
20260902054518 60 212 0.9 4.3 0.00 0.00 0.00 74 1017.9
20260902053017 60 200 1.7 9.6 0.00 0.00 0.00 72 1017.8
20260902051508 61 266 2.6 4.3 0.00 0.00 0.00 70 1017.9
20260902050009 62 170 0.9 5.2 0.00 0.00 0.00 68 1017.7
20260902044506 63 184 2.6 7.8 0.00 0.00 0.00 68 1017.4
20260902043005 63 213 2.6 7.0 0.00 0.00 0.00 69 1017.3
20260902041505 62 255 2.6 10.4 0.00 0.00 0.00 71 1017.4
20260902040005 62 231 2.6 8.7 0.00 0.00 0.00 70 1017.5
20260902034503 62 311 2.6 9.6 0.00 0.00 0.00 70 1017.4
20260902033003 62 277 3.5 6.1 0.00 0.00 0.00 71 1017.6
20260902031503 62 251 4.3 12.2 0.00 0.00 0.00 69 1017.6
20260902030002 62 259 2.6 7.0 0.00 0.00 0.00 72 1017.6
20260902024601 62 253 3.5 14.8 0.00 0.00 0.00 71 1017.6
20260902023102 62 226 3.5 9.6 0.00 0.00 0.00 68 1017.5
20260902021608 63 173 5.2 11.3 0.00 0.00 0.00 67 1017.7
20260902020104 63 240 5.2 10.4 0.00 0.00 0.00 67 1017.7